FW1393 Weather Reports


time (UTC)temp
C
wind
direction
speed
KPH
gust
KPH
rain 1hr
cm
rain 24hr
cm
rain mn
cm
humidity
%
barometer
mb
20260506203039 13 11 0.0 3.2 0.00 0.94 0.94 86 1009.6
20260506201529 13 56 0.0 1.6 0.00 0.94 0.94 86 1009.1
20260506200038 13 301 0.0 1.6 0.00 0.94 0.94 85 1009.0
20260506194528 13 267 0.0 9.7 0.00 0.94 0.94 85 1008.5
20260506193026 13 327 1.6 8.0 0.00 0.94 0.94 85 1008.1
20260506191527 14 67 4.8 11.3 0.00 0.94 0.94 86 1007.9
20260506190034 14 37 1.6 11.3 0.00 0.94 0.94 85 1007.8
20260506184525 15 39 1.6 12.9 0.00 0.94 0.94 83 1007.4
20260506183025 15 72 3.2 17.7 0.00 0.94 0.94 81 1006.8
20260506181526 16 55 3.2 11.3 0.00 0.94 0.94 77 1006.4
20260506180025 16 43 6.4 12.9 0.00 0.94 0.94 74 1006.3
20260506174523 16 357 1.6 6.4 0.00 0.94 0.94 69 1006.0
20260506173022 16 296 1.6 6.4 0.00 0.94 0.94 68 1005.9
20260506171523 17 39 1.6 6.4 0.00 0.94 0.94 68 1005.7
20260506170022 17 43 3.2 11.3 0.00 0.94 0.94 69 1005.4
20260506164520 18 330 1.6 12.9 0.00 0.94 0.94 70 1005.3
20260506163037 19 32 0.0 6.4 0.00 0.94 0.94 71 1005.3
20260506161521 18 50 3.2 12.9 0.00 0.94 0.94 73 1005.2
20260506160019 17 344 3.2 9.7 0.00 0.94 0.94 72 1005.2
20260506154529 18 349 3.2 11.3 0.00 0.94 0.94 70 1005.2
20260506153016 19 331 4.8 9.7 0.00 0.94 0.94 68 1005.2
20260506151514 19 343 3.2 17.7 0.00 0.94 0.94 67 1005.3
20260506150114 20 8 3.2 14.5 0.00 0.94 0.94 67 1005.3
20260506144512 20 314 3.2 11.3 0.00 0.94 0.94 68 1005.4
20260506143014 20 59 1.6 8.0 0.00 0.94 0.94 67 1005.4
20260506141509 19 77 3.2 9.7 0.00 0.94 0.94 69 1005.4
20260506140017 19 356 3.2 6.4 0.00 0.94 0.94 65 1005.5
20260506134506 19 317 1.6 4.8 0.00 0.94 0.94 62 1005.8
20260506133003 20 88 0.0 9.7 0.00 0.94 0.94 61 1005.8
20260506131502 20 133 1.6 8.0 0.00 0.94 0.94 63 1005.8
20260506130100 19 100 4.8 9.7 0.00 0.94 0.94 66 1005.9
20260506124601 19 69 3.2 8.0 0.00 0.94 0.94 68 1006.0
20260506123111 18 29 1.6 8.0 0.00 0.94 0.94 68 1005.9
20260506121608 17 153 4.8 9.7 0.00 0.94 0.94 71 1005.8
20260506120051 17 65 4.8 9.7 0.00 0.94 0.94 71 1006.0
20260506114549 17 214 1.6 9.7 0.00 0.94 0.94 74 1006.0
20260506113048 16 101 4.8 9.7 0.00 0.94 0.94 74 1006.1
20260506111547 16 83 3.2 11.3 0.00 0.94 0.94 73 1006.1
20260506110045 17 77 1.6 9.7 0.00 0.94 0.94 72 1006.2
20260506104546 16 284 3.2 9.7 0.00 0.99 0.94 77 1006.5
20260506103040 16 94 3.2 9.7 0.00 0.99 0.94 80 1006.6
20260506101539 16 102 0.0 6.4 0.00 0.99 0.94 80 1006.7
20260506100038 16 138 4.8 9.7 0.00 0.99 0.94 80 1006.7
20260506094535 16 81 1.6 8.0 0.00 1.02 0.94 82 1006.8
20260506093033 16 135 0.0 6.4 0.00 1.02 0.94 83 1006.9
20260506091529 14 353 1.6 6.4 0.00 1.02 0.94 85 1007.1
20260506090026 14 117 0.0 4.8 0.00 1.02 0.94 90 1007.2
20260506084533 13 78 1.6 4.8 0.00 1.07 0.94 95 1007.2
20260506083024 12 72 0.0 4.8 0.00 1.07 0.94 95 1007.3
20260506081518 12 295 0.0 3.2 0.00 1.07 0.94 95 1007.3
20260506073014 11 310 0.0 3.2 0.08 1.07 0.94 97 1007.4
20260506071513 11 331 0.0 1.6 0.18 1.07 0.94 97 1007.4
20260506061509 11 240 0.0 1.6 0.23 0.89 0.76 97 1007.8
20260506044510 11 119 0.0 4.8 0.15 0.81 0.43 97 1008.1
20260506043002 11 100 0.0 3.2 0.13 0.76 0.38 97 1008.2
20260506041501 11 86 0.0 3.2 0.10 0.71 0.33 97 1008.2
20260506040001 11 116 0.0 4.8 0.08 1.04 0.30 97 1008.2
20260506034604 11 124 1.6 4.8 0.08 1.04 0.30 97 1008.4
20260506033057 11 149 0.0 1.6 0.05 0.99 0.25 97 1008.4
20260506031557 11 129 0.0 3.2 0.03 0.97 0.23 97 1008.5
20260506030057 11 94 1.6 4.8 0.03 0.97 0.23 97 1008.8
20260506024556 11 98 0.0 1.6 0.03 0.99 0.23 97 1009.0
20260506023106 11 125 0.0 3.2 0.00 0.99 0.20 97 1009.1
20260506021551 11 84 0.0 1.6 0.00 0.99 0.20 96 1009.3
20260506020054 11 41 0.0 1.6 0.00 0.99 0.20 96 1009.4
20260506014548 11 39 0.0 3.2 0.03 0.99 0.20 96 1009.5
20260506013054 11 33 0.0 1.6 0.03 0.99 0.20 96 1009.5
20260506011547 11 330 0.0 1.6 0.15 0.99 0.20 96 1009.7
20260506010043 11 125 0.0 1.6 0.20 0.99 0.20 96 1009.8
20260506004541 12 126 0.0 0.0 0.18 1.09 0.18 96 1010.2
20260506003039 12 131 0.0 1.6 0.15 1.07 0.15 95 1010.4
20260506001536 12 98 0.0 1.6 0.05 0.97 0.05 95 1010.7
20260506000036 12 49 0.0 0.0 0.00 0.89 0.00 95 1010.9
20260505234534 12 49 0.0 1.6 0.00 0.94 0.00 95 1010.9
20260505233033 12 49 0.0 1.6 0.00 0.94 0.00 95 1011.0
20260505231532 12 49 0.0 1.6 0.00 0.94 0.00 95 1011.2
20260505230045 12 59 0.0 1.6 0.00 0.94 0.00 94 1011.2
20260505224533 12 128 0.0 1.6 0.00 0.94 0.00 94 1011.3
20260505223037 12 165 0.0 0.0 0.00 0.94 0.00 94 1011.4
20260505221529 12 146 0.0 0.0 0.00 0.94 0.00 95 1011.5
20260505220044 12 87 0.0 0.0 0.00 0.94 0.94 95 1011.2
20260505214533 12 87 0.0 0.0 0.00 0.94 0.94 94 1011.3
20260505213024 12 238 0.0 0.0 0.00 0.94 0.94 95 1011.9
20260505211523 12 320 0.0 0.0 0.00 0.94 0.94 95 1011.9
20260505210023 12 28 0.0 1.6 0.00 0.94 0.94 95 1011.8
20260505204522 12 33 0.0 1.6 0.00 0.94 0.94 94 1011.9